Location: Unspecified
(0.0000°N, 0.0000°E)
Time: 14:15:09
(UTC+00:00)

A-11 Canister half - Pass Details

Date: 20 May 2026
Orbit: 1524 x 1684 km, 47.3° (Epoch: 7 June)

Event Time Altitude Azimuth Distance (km) Brightness Sun altitude
Rises 02:49:59 0° 280° (W) 4,930 - -43.1°
Reaches altitude 10° 02:54:55 10° 261° (W) 3,940 - -42.0°
Maximum altitude 03:00:32 16° 226° (SW) 3,453 - -40.8°
Drops below altitude 10° 03:06:09 10° 191° (S) 3,906 - -39.5°
Sets 03:11:06 0° 171° (S) 4,868 - -38.4°
